TimeEST,TemperatureF,Dew PointF,Humidity,Sea Level PressureIn,VisibilityMPH,Wind Direction,Wind SpeedMPH,Gust SpeedMPH,PrecipitationIn,Events,Conditions,WindDirDegrees,DateUTC
12:15 AM,26.6,23.0,86,30.07,10.0,ESE,18.4,25.3,N/A,,Overcast,110,2013-02-22 05:15:00
12:35 AM,26.6,23.0,86,30.05,7.0,East,16.1,24.2,N/A,,Overcast,100,2013-02-22 05:35:00
12:55 AM,26.6,23.0,86,30.05,3.0,East,18.4,21.9,N/A,Snow,Light Snow,90,2013-02-22 05:55:00
1:15 AM,26.6,23.0,86,30.05,7.0,East,13.8,-,N/A,Snow,Light Snow,90,2013-02-22 06:15:00
1:35 AM,26.6,23.0,86,30.06,2.5,ESE,10.4,-,N/A,Snow,Light Snow,110,2013-02-22 06:35:00
1:55 AM,26.6,23.0,86,30.04,1.8,ESE,11.5,-,0.01,Snow,Light Snow,110,2013-02-22 06:55:00
2:15 AM,26.6,24.8,93,30.02,2.0,ESE,12.7,19.6,0.01,Snow,Light Snow,110,2013-02-22 07:15:00
2:35 AM,26.6,24.8,93,29.98,7.0,ESE,16.1,20.7,0.01,,Overcast,110,2013-02-22 07:35:00
2:55 AM,26.6,24.8,93,29.97,10.0,ESE,17.3,21.9,0.01,,Overcast,110,2013-02-22 07:55:00
3:15 AM,26.6,24.8,93,29.96,10.0,ESE,13.8,19.6,N/A,,Overcast,110,2013-02-22 08:15:00
3:55 AM,26.6,24.8,93,29.90,10.0,ESE,16.1,24.2,N/A,,Overcast,110,2013-02-22 08:55:00
4:15 AM,26.6,24.8,93,29.91,10.0,ESE,16.1,23.0,N/A,,Overcast,120,2013-02-22 09:15:00
4:35 AM,28.4,26.6,93,29.89,3.0,ESE,19.6,23.0,N/A,Thunderstorm,Overcast,120,2013-02-22 09:35:00
4:55 AM,28.4,26.6,93,29.89,3.0,ESE,15.0,19.6,N/A,,Overcast,120,2013-02-22 09:55:00
5:15 AM,28.4,26.6,93,29.90,2.5,SE,16.1,20.7,N/A,Thunderstorm,Overcast,130,2013-02-22 10:15:00
5:35 AM,28.4,26.6,93,29.89,3.0,SE,19.6,-,N/A,,Overcast,140,2013-02-22 10:35:00
5:55 AM,28.4,28.4,100,29.88,2.5,SE,16.1,21.9,N/A,,Overcast,130,2013-02-22 10:55:00
6:15 AM,28.4,28.4,100,29.88,2.0,SE,17.3,23.0,N/A,,Overcast,140,2013-02-22 11:15:00
6:35 AM,28.4,28.4,100,29.88,1.5,SE,15.0,21.9,N/A,,Overcast,140,2013-02-22 11:35:00
6:55 AM,28.4,28.4,100,29.88,1.5,SSE,13.8,18.4,N/A,,Overcast,150,2013-02-22 11:55:00
7:15 AM,28.4,28.4,100,29.87,1.8,SSE,13.8,-,N/A,,Overcast,150,2013-02-22 12:15:00
7:35 AM,28.4,28.4,100,29.87,2.5,SSE,11.5,-,N/A,,Overcast,150,2013-02-22 12:35:00
7:55 AM,30.2,30.2,100,29.88,2.0,SSE,9.2,-,N/A,,Overcast,150,2013-02-22 12:55:00
8:15 AM,30.2,30.2,100,29.88,1.8,SSE,11.5,-,N/A,,Overcast,150,2013-02-22 13:15:00
8:35 AM,30.2,30.2,100,29.88,2.0,SSE,10.4,-,N/A,,Overcast,160,2013-02-22 13:35:00
8:55 AM,32.0,32.0,100,29.88,2.0,SSE,11.5,-,N/A,,Overcast,160,2013-02-22 13:55:00
9:15 AM,32.0,32.0,100,29.88,1.8,SSE,10.4,-,N/A,,Overcast,160,2013-02-22 14:15:00
9:35 AM,32.0,32.0,100,29.88,2.0,SSE,9.2,-,N/A,,Overcast,160,2013-02-22 14:35:00
9:55 AM,32.0,32.0,100,29.87,1.5,SSE,12.7,-,N/A,,Overcast,160,2013-02-22 14:55:00
10:15 AM,32.0,32.0,100,29.87,1.0,SSE,9.2,-,N/A,,Overcast,160,2013-02-22 15:15:00
10:35 AM,32.0,32.0,100,29.87,1.0,South,8.1,-,N/A,,Overcast,170,2013-02-22 15:35:00
10:55 AM,32.0,32.0,100,29.88,1.2,South,8.1,-,N/A,,Overcast,170,2013-02-22 15:55:00
11:15 AM,32.0,32.0,100,29.88,0.8,South,6.9,-,N/A,,Overcast,170,2013-02-22 16:15:00
11:35 AM,32.0,32.0,100,29.88,0.5,South,6.9,-,N/A,Fog,Fog,180,2013-02-22 16:35:00
11:55 AM,33.8,33.8,100,29.88,0.5,South,5.8,-,N/A,Fog,Fog,190,2013-02-22 16:55:00
12:15 PM,33.8,33.8,100,29.89,0.2,SSW,6.9,-,N/A,Fog,Fog,200,2013-02-22 17:15:00
12:35 PM,33.8,33.8,100,29.89,0.5,SSW,8.1,-,N/A,Fog,Fog,200,2013-02-22 17:35:00
12:55 PM,33.8,33.8,100,29.89,1.0,SW,11.5,16.1,N/A,,Overcast,220,2013-02-22 17:55:00
1:15 PM,33.8,33.8,100,29.89,1.0,SW,11.5,-,N/A,,Overcast,230,2013-02-22 18:15:00
1:35 PM,33.8,33.8,100,29.89,2.5,SW,13.8,-,N/A,,Overcast,220,2013-02-22 18:35:00
1:55 PM,35.6,35.6,100,29.90,7.0,SW,11.5,17.3,N/A,,Overcast,230,2013-02-22 18:55:00
2:15 PM,35.6,35.6,100,29.90,7.0,SW,15.0,-,N/A,,Overcast,230,2013-02-22 19:15:00
2:35 PM,35.6,35.6,100,29.90,10.0,SW,11.5,-,N/A,,Overcast,230,2013-02-22 19:35:00
2:55 PM,35.6,33.8,93,29.91,10.0,WSW,15.0,18.4,N/A,,Overcast,240,2013-02-22 19:55:00
3:15 PM,35.6,33.8,93,29.91,10.0,WSW,12.7,23.0,N/A,,Overcast,240,2013-02-22 20:15:00
3:35 PM,35.6,33.8,93,29.91,10.0,WSW,11.5,17.3,N/A,,Overcast,240,2013-02-22 20:35:00
3:55 PM,35.6,33.8,93,29.91,10.0,SW,16.1,-,N/A,,Overcast,230,2013-02-22 20:55:00
4:15 PM,35.6,32.0,87,29.91,10.0,WSW,12.7,21.9,N/A,,Overcast,250,2013-02-22 21:15:00
4:35 PM,35.6,32.0,87,29.92,10.0,WSW,13.8,20.7,N/A,,Overcast,240,2013-02-22 21:35:00
4:55 PM,33.8,32.0,93,29.93,10.0,WSW,16.1,23.0,N/A,,Overcast,240,2013-02-22 21:55:00
5:15 PM,33.8,32.0,93,29.93,10.0,WSW,12.7,-,N/A,,Overcast,250,2013-02-22 22:15:00
5:35 PM,33.8,32.0,93,29.94,10.0,WSW,16.1,21.9,N/A,,Overcast,240,2013-02-22 22:35:00
5:55 PM,33.8,32.0,93,29.94,10.0,WSW,9.2,18.4,N/A,,Overcast,240,2013-02-22 22:55:00
6:15 PM,33.8,32.0,93,29.94,10.0,WSW,12.7,18.4,N/A,,Overcast,240,2013-02-22 23:15:00
6:35 PM,33.8,32.0,93,29.94,10.0,WSW,12.7,-,N/A,,Overcast,240,2013-02-22 23:35:00
6:55 PM,33.8,32.0,93,29.95,10.0,WSW,9.2,-,N/A,,Overcast,240,2013-02-22 23:55:00
7:15 PM,33.8,32.0,93,29.96,10.0,SW,8.1,-,N/A,,Overcast,230,2013-02-23 00:15:00
7:35 PM,33.8,32.0,93,29.96,10.0,SW,6.9,-,N/A,,Overcast,230,2013-02-23 00:35:00
7:55 PM,33.8,32.0,93,29.96,10.0,SW,6.9,-,N/A,,Overcast,230,2013-02-23 00:55:00
8:15 PM,33.8,32.0,93,29.95,10.0,West,9.2,-,N/A,,Overcast,260,2013-02-23 01:15:00
8:35 PM,33.8,32.0,93,29.95,10.0,SW,4.6,-,N/A,,Overcast,230,2013-02-23 01:35:00
8:55 PM,33.8,32.0,93,29.95,10.0,SW,5.8,-,N/A,,Overcast,220,2013-02-23 01:55:00
9:15 PM,33.8,32.0,93,29.95,10.0,SW,6.9,-,N/A,,Overcast,230,2013-02-23 02:15:00
9:35 PM,33.8,32.0,93,29.95,10.0,SW,4.6,-,N/A,,Overcast,230,2013-02-23 02:35:00
9:55 PM,33.8,32.0,93,29.95,10.0,SW,4.6,-,N/A,,Overcast,220,2013-02-23 02:55:00
10:15 PM,33.8,32.0,93,29.95,10.0,SW,5.8,-,N/A,,Overcast,220,2013-02-23 03:15:00
10:35 PM,33.8,32.0,93,29.95,10.0,SW,6.9,-,N/A,,Overcast,220,2013-02-23 03:35:00
10:55 PM,33.8,32.0,93,29.95,10.0,WSW,8.1,-,N/A,,Overcast,240,2013-02-23 03:55:00
11:15 PM,33.8,32.0,93,29.95,10.0,WSW,10.4,-,N/A,,Overcast,240,2013-02-23 04:15:00
11:35 PM,33.8,30.2,87,29.94,10.0,WSW,10.4,-,N/A,,Overcast,240,2013-02-23 04:35:00
11:55 PM,33.8,30.2,87,29.94,10.0,WSW,9.2,-,N/A,,Overcast,240,2013-02-23 04:55:00